Погода в Инге

Погода в Инге : погода сейчас, прогноз погоды и архив. Всё, что Вы хотите узнать о погоде в Инге!

Поиск расширенной информации на нашем сайте:

Другие новости

Новости СМИ2

Главная страница сайта

Новости сайта

03.07.2017

Напоминаем, что на нашем специализированном сайте Метеоцентр.Азия вы можете получить высокодетализированные автоматические прогнозы погоды по пунктам России, СНГ и мира в авиационном формате (включающие направление и скорость ветра, видимость, явления погоды, количество и форму облачности, нижнюю и верхнюю границу облачности).

Рекомендуем: инмор спб сайт

Погода в Инге - сегодня

Время (UTC), дата Ветер
(°,м/с) 
Видим.   Явления Облачность Т
(°С)
Тd
(°С)
f(%) Тe
(°С)
Pmin
(гПа)
dP
(гПа)
Po
(мм)
O2
(г/м3)
Тmin Tmax R s Состояние
почвы
06 22.05.18 320 (СЗ) 20000 м  {ливн. осадки}  10/10 600 м кучево-дожд. 
[Cb cap]
+10.6 +2.7 58 +11  1004.1  -2.4  706  273           
09 22.05.18 тихо ()   10 км  слаб. ливневой дождь  10/10 600 м кучево-дожд. 
[Cb cap]
+9.1 +7.4 89 +9  1002.4  -1.8  704  273           
12 22.05.18 тихо ()   10 км  слаб. ливневой дождь  10/8 600 м кучево-дожд., верхняя 
[Cb cap|Ci fib]
+9.1 +7.6 90 +9  1001.9  -0.5  704  273    +11.6  0.6     
15 22.05.18 тихо ()   н/о    3/3 600 м кучево-дожд. 
[Cb cap]
+5.2 +4 92 +5  1002.2  -0.7  704  277           
18 22.05.18 тихо ()   н/о    10/10 600 м кучево-дожд. 
[Cb cap]
+5.3 +4.4 94 +5  1000.7  -1.4  703  277           
21 22.05.18 тихо ()   20000 м    10/10 600 м кучево-дожд. 
[Cb cap]
+3.7 +2.7 93 +4  998.9  -2  701  278           
00 23.05.18 тихо ()   20000 м    10/8 600 м кучево-дожд., верхняя 
[Cb cap|Ci fib]
+7.1 +6 93 +7  996.6  -1.4  700  274  +3.4        влажная 
03 23.05.18 070 (В) 20000 м    6/6 600 м кучево-дожд., средняя, верхняя 
[Cb cap|Ac trans|Ci fib]
+17.5 +9.1 58 +19  991.4  -2.6  698  263           
06 23.05.18 020 (С) 20000 м    8/3 600 м кучево-дожд., средняя, верхняя 
[Cb cap|Ac trans|Ci fib]
+22 +7.6 39 +22  990.3  -0.2  698  259           
09 23.05.18 360 (С) 20000 м    6/4 600 м кучево-дожд., верхняя 
[Cb cap|Ci sp]
+20.5 +10.4 52 +24  991.2  0.6  698  260           
12 23.05.18 050 (СВ) 20000 м  {ливн. осадки}  8/3 600 м кучево-дожд., средняя, верхняя 
[Cb cap|Ac trans|Ci fib]
+16.6 +8.2 58 +17  993.4  1.3  699  264    +23.5  0.1     
15 23.05.18 тихо ()   н/о    10/8 600 м кучево-дожд., средняя, верхняя 
[Cb cap|Ac As|Ci fib]
+12.1 +8 76 +12  995.3  0.9  700  269           
18 23.05.18 тихо ()   н/о  в посл. час ливневой дождь  10/9 600 м кучево-дожд., средняя 
[Cb cap|Ac As]
+10.2 +8.4 89 +11  995.4  -0.4  700  270           
21 23.05.18 050 (СВ) 20000 м    10/4 600 м кучево-дожд., средняя, верхняя 
[Cb cap|Ac As|Ci fib]
+9.6 +7.3 86 +10  994.2  -1.2  699  271           
00 24.05.18 тихо ()   20000 м    10/3 600 м кучево-дожд., средняя, верхняя 
[Cb cap|Ac und|Ci fib]
+11.1 +8.9 86 +12  997.5  3.4  701  270  +8.7    0.3    влажная 
03 24.05.18 140 (ЮВ) 20000 м    10/4 600 м средняя, верхняя 
[Cu hum|Ac trans|Ci fib]
+16.1 +6 51 +16  998.7  2.1  703  266           
06 24.05.18 360 (С) 20000 м    10/8 600 м кучево-дожд., верхняя 
[Cb cap|Ci fib]
+17.4 +5.2 45 +18  999.8  1.3  704  266           
09 24.05.18 320 (СЗ) 20000 м  в посл. час ливневой дождь  10/8 600 м кучево-дожд., средняя 
[Cb cap|Ac As]
+12.9 +6.7 66 +12  1003  705  270           
12 24.05.18 270 (З) 10 км  слаб. ливневой дождь  10/10 600 м кучево-дожд. 
[Cb cap]
+8 +6.3 89 +7  1007.7  3.4  708  276    +17.6     
15 24.05.18 270 (З) н/о  в посл. час гроза{ливн. осадки}  10/10 600 м кучево-дожд. 
[Cb cap]
+5.5 +3.6 88 +5  1010.9  2.5  710  280           
18 24.05.18 230 (ЮЗ) н/о  слаб. ливневой дождь{гроза}  10/10 600 м кучево-дожд. 
[Cb cap]
+4.5 +2.8 89 +4  1012.4  1.1  711  281           
21 24.05.18 250 (З) 10 км  слаб. ливневой дождь  10/10 600 м кучево-дожд. 
[Cb cap]
+3.1 +1.6 90 +3  1013.8  711  283           
00 25.05.18 230 (ЮЗ) 10 км  слаб. ливневой дождь  10/10 600 м кучево-дожд. 
[Cb cap]
+3 +1.5 90 +2  1015.2  1.3  712  284  +2.9    10    мокрая 
03 25.05.18 270 (З) 10 км  слаб. ливневой дождь  10/10 600 м кучево-дожд. 
[Cb cap]
+3.8 +2 88 +3  1015.7  0.6  713  283           
06 25.05.18 260 (З) 10 км  слаб. ливневой дождь  10/10 600 м кучево-дожд. 
[Cb cap]
+6.2 +3.9 85 +5  1015.2  0.1  728  286           
Время (UTC), дата Ветер
(°,м/с) 
Видим.   Явления Облачность Т
(°С)
Тd
(°С)
f(%) Тe
(°С)
Pmin
(гПа)
dP
(гПа)
Po
(мм)
O2
(г/м3)
Тmin Tmax R s Состояние
почвы

Для получения пояснительной информации подведите курсор к названию столбца.

ПОГОДА в Инге - архив

Всё, что Вы хотите узнать о погоде в Инге - удобно и подробно!

Выберите нужную дату (начиная с 1 января 2015* года) и нажмите кнопку "Найти".
Будут отображены архивные сводки погоды по пункту Инга, начиная с указанной даты.


Отображать данные в формате CSV (для использования в таблицах Excel)


Внимание! Наш архив погоды предназначен исключительно для личного некоммерческого использования в познавательных целях. Если Вам необходимы официальные справки о состоянии погоды (для производственных, юридических, коммерческих и т.п. целей), обращайтесь в органы Росгидромета.

*Примечание: данная дата относится к архиву по метеостанциям СССР (Россия, СНГ, Балтия).
Архив по метеостанциям Зарубежной Европы и Азии (кроме Китая) хранится 10 дней, по другим регионам земного шара (Китай, Африка, Америка, Австралия, Океания) - 1 день.

Инга - район местоположения метеостанции


Название, широта, долгота, высота метеостанции:
Инга 53°ш. 102°д. 543 м над ур. моря [Российская Федерация]

Дополнительная информация

В oтличие oт бoльшинства пoгoдных сайтoв мы публикуем пoдрoбную метеoинфoрмацию в детальнoм прoфессиoнальнoм фoрмате.

Характеристики температуры и влажнoсти вoздуха измеряются на высoте 2 м в тени вдали oт зданий и деревьев.
Скoрoсть ветра измеряется на высoте 10 м (на урoвне рoста челoвека скoрoсть ветра ниже в 1.5-2 раза). Если метеoстанция нахoдится в гoрoде или в лесу, тo скoрoсть ветра занижена на 2-4 м/с пo сравнению с oткрытым местoм. Скoрoсть ветра над акватoриями крупных рек и oзёр, а также на вершинах хoлмoв на 2-5 м/с выше, чем в oбычных услoвиях.
Атмoсфернoе давление в разных тoчках местнoсти мoжет значительнo oтличаться oт давления на метеoстанции, в зависимoсти oт услoвий рельефа (при пoдъёме на 10 м давление пoнижается примернo на 1 мм рт.ст.).